Location: Maiden
(35.5760°N, 81.2120°W)
Time: 11:37:10
(UTC-04:00)

SJ-6B - Pass Details

Date: 14 June 2018
Orbit: 511 x 583 km, 97.7° (Epoch: 18 September)

Event Time Altitude Azimuth Distance (km) Brightness Sun altitude
Rises 21:06:46 0° 178° (S) 2,628 5.9 -5.2°
Reaches altitude 10° 21:08:52 10° 183° (S) 1,754 5.1 -5.5°
Maximum altitude 21:12:33 51° 260° (W) 674 3.6 -6.1°
Drops below altitude 10° 21:16:21 10° 337° (NNW) 1,805 6.5 -6.8°
Sets 21:18:33 0° 343° (NNW) 2,715 7.3 -7.1°
